XW-2F

Last updated on Mon Apr 01 2024 00:02:57 GMT+0000 (Coordinated Universal Time)

1 40910U 15049M 24091.59811466 .06199369 25225-5 13457-2 0 9995 2 40910 97.4085 121.9638 0008644 233.4557 126.5942 16.30538441473851
UTC large
Height (km)
Speed (km/s)
/
Latitude / Longitude
Inclination (degrees)
Orbital Period (minutes)
Azimuth
Elevation
Range (km)
Doppler Factor

Next 0 passes for location: London (51.5072 / 0.1276)

Sorry there are no passes over London.